EW5562 Weather Reports


Display with metric or nautical units.
time (UTC)temp
F
wind
direction
speed
MPH
gust
MPH
rain 1hr
in
rain 24hr
in
rain mn
in
humidity
%
barometer
mb
20260504031509 38 293 3.0 4.0 0.00 1.43 0.00 91 1015.5
20260504024509 37 0 3.0 6.0 0.00 1.43 0.00 91 1015.4
20260504021509 38 329 3.0 3.0 0.00 1.43 0.00 90 1015.5
20260504014509 38 216 2.0 3.0 0.00 1.43 0.00 89 1015.5
20260504011506 40 276 0.0 3.0 0.00 1.43 0.00 87 1015.5
20260504004507 40 258 3.0 4.0 0.00 1.43 0.00 89 1015.3
20260504001506 40 228 4.0 5.0 0.00 1.43 0.00 87 1015.4
20260503234506 41 210 2.0 5.0 0.00 1.43 0.00 83 1015.3
20260503231506 43 321 2.0 6.0 0.00 1.43 0.00 79 1015.5
20260503230006 43 320 3.0 9.0 0.00 1.43 0.00 79 1015.4
20260503221506 43 336 3.0 9.0 0.00 1.43 0.00 80 1015.4
20260503220005 46 271 6.0 11.0 0.00 1.43 0.00 76 1015.4
20260503211504 46 282 6.0 7.0 0.00 1.43 0.00 76 1015.5
20260503204503 46 278 2.0 5.0 0.00 1.43 0.42 75 1015.5
20260503201503 46 281 3.0 4.0 0.00 1.43 0.42 77 1015.7
20260503200004 46 245 2.0 5.0 0.00 1.43 0.42 78 1015.8
20260503193003 48 259 4.0 4.0 0.00 1.43 0.42 76 1015.8
20260503184500 46 248 3.0 7.0 0.00 1.43 0.42 82 1015.7
20260503181502 47 209 5.0 6.0 0.00 1.43 0.42 79 1015.5
20260503180001 52 243 3.0 5.0 0.00 1.43 0.42 63 1015.0
20260503171459 53 331 3.0 9.0 0.00 1.43 0.42 61 1014.6
20260503081452 46 344 8.0 13.0 0.11 0.20 0.20 89 1015.3
20260503051455 45 227 0.0 5.0 0.06 0.08 0.08 88 1014.2
20260503044448 46 210 2.0 4.0 0.07 0.07 0.07 87 1014.0
20260503041448 46 186 2.0 5.0 0.02 0.02 0.02 82 1013.9
20260503034447 47 21 1.0 7.0 0.00 0.00 0.00 79 1013.7